Вернуться в каталог

STARLINK-36842

АктивенСвязьSSO
NORAD 67884·PAYLOAD·🇺🇸 United States

Запущен Feb 21, 2026 с Vandenberg Space Force Base

Loading…

Ближайшие Пролёты (ближайшие 24 часа)

TLE

СвежийSource: CelesTrak SupGP

Эпоха: Sep 15, 2026, 04:13 UTC

1 67884C 26035F   26258.17618056  .00103520  00000+0  32132-2 0  2587
2 67884  97.2847 190.0344 0001813  99.2629 231.3054 15.33387757    11

Отслеживайте STARLINK-36842 в реальном времени с AllMySat

Download on the App Store